Time,TemperatureF,DewpointF,PressureIn,WindDirection,WindDirectionDegrees,WindSpeedMPH,WindSpeedGustMPH,Humidity,HourlyPrecipIn,Conditions,Clouds,dailyrainin,SoftwareType,DateUTC
2013-05-13 00:01:00,43.5,34.4,30.06,SSW,202,0.0,0.0,70,0.00,,---,0.00,VWS V14.01,2013-05-13 04:01:00,
2013-05-13 00:06:00,43.2,34.1,30.06,SSW,202,0.0,0.0,70,0.00,,---,0.00,VWS V14.01,2013-05-13 04:06:00,
2013-05-13 00:11:00,42.9,34.2,30.07,SSW,202,0.0,0.0,71,0.00,,---,0.00,VWS V14.01,2013-05-13 04:11:00,
2013-05-13 00:16:00,42.7,34.0,30.07,SSW,202,0.0,0.0,71,0.00,,---,0.00,VWS V14.01,2013-05-13 04:16:00,
2013-05-13 00:21:00,42.4,34.0,30.07,SSW,204,0.0,1.0,72,0.00,,---,0.00,VWS V14.01,2013-05-13 04:21:00,
2013-05-13 00:26:00,42.2,33.8,30.07,SSW,204,0.0,0.0,72,0.00,,---,0.00,VWS V14.01,2013-05-13 04:26:00,
2013-05-13 00:31:00,42.0,33.6,30.07,SSW,204,0.0,0.0,72,0.00,,---,0.00,VWS V14.01,2013-05-13 04:31:00,
2013-05-13 00:36:00,41.8,33.5,30.07,SSW,204,0.0,0.0,72,0.00,,---,0.00,VWS V14.01,2013-05-13 04:36:00,
2013-05-13 00:41:00,41.6,33.6,30.07,SW,222,0.0,2.0,73,0.00,,---,0.00,VWS V14.01,2013-05-13 04:41:00,
2013-05-13 00:46:00,41.5,33.5,30.07,WNW,291,1.0,1.0,73,0.00,,---,0.00,VWS V14.01,2013-05-13 04:46:00,
2013-05-13 00:51:00,41.3,33.3,30.07,WNW,291,0.0,0.0,73,0.00,,---,0.00,VWS V14.01,2013-05-13 04:51:00,
2013-05-13 00:56:00,41.2,33.2,30.07,WNW,291,0.0,0.0,73,0.00,,---,0.00,VWS V14.01,2013-05-13 04:56:00,
2013-05-13 01:01:00,41.1,33.1,30.07,WNW,291,0.0,0.0,73,0.00,,---,0.00,VWS V14.01,2013-05-13 05:01:00,
2013-05-13 01:06:00,40.9,32.9,30.07,WNW,291,0.0,0.0,73,0.00,,---,0.00,VWS V14.01,2013-05-13 05:06:00,
2013-05-13 01:11:00,40.8,33.2,30.07,WNW,291,0.0,0.0,74,0.00,,---,0.00,VWS V14.01,2013-05-13 05:11:00,
2013-05-13 01:16:00,40.7,33.1,30.07,WNW,291,0.0,0.0,74,0.00,,---,0.00,VWS V14.01,2013-05-13 05:16:00,
2013-05-13 01:21:00,40.5,32.9,30.08,WNW,291,0.0,0.0,74,0.00,,---,0.00,VWS V14.01,2013-05-13 05:21:00,
2013-05-13 01:26:00,40.2,32.9,30.08,WNW,291,0.0,0.0,75,0.00,,---,0.00,VWS V14.01,2013-05-13 05:26:00,
2013-05-13 01:31:00,40.0,32.7,30.07,WNW,291,0.0,0.0,75,0.00,,---,0.00,VWS V14.01,2013-05-13 05:31:00,
2013-05-13 01:36:00,39.7,32.8,30.07,SSE,163,0.0,1.0,76,0.00,,---,0.00,VWS V14.01,2013-05-13 05:36:00,
2013-05-13 01:41:00,39.5,32.6,30.07,SSE,163,0.0,0.0,76,0.00,,---,0.00,VWS V14.01,2013-05-13 05:41:00,
2013-05-13 01:46:00,39.3,32.7,30.07,SSE,163,0.0,0.0,77,0.00,,---,0.00,VWS V14.01,2013-05-13 05:46:00,
2013-05-13 01:51:00,39.1,32.5,30.07,SSE,163,0.0,0.0,77,0.00,,---,0.00,VWS V14.01,2013-05-13 05:51:00,
2013-05-13 01:56:00,38.8,32.2,30.07,SSE,163,0.0,0.0,77,0.00,,---,0.00,VWS V14.01,2013-05-13 05:56:00,
2013-05-13 02:01:00,38.6,32.3,30.07,SSE,163,0.0,0.0,78,0.00,,---,0.00,VWS V14.01,2013-05-13 06:01:00,
2013-05-13 02:06:00,38.3,32.0,30.07,SSE,163,0.0,0.0,78,0.00,,---,0.00,VWS V14.01,2013-05-13 06:06:00,
2013-05-13 02:11:00,38.0,31.8,30.07,SSE,163,0.0,0.0,78,0.00,,---,0.00,VWS V14.01,2013-05-13 06:11:00,
2013-05-13 02:16:00,37.8,31.9,30.07,SSE,163,0.0,0.0,79,0.00,,---,0.00,VWS V14.01,2013-05-13 06:16:00,
2013-05-13 02:21:00,37.4,31.5,30.07,SSE,163,0.0,0.0,79,0.00,,---,0.00,VWS V14.01,2013-05-13 06:21:00,
2013-05-13 02:26:00,37.1,31.5,30.06,SSE,163,0.0,0.0,80,0.00,,---,0.00,VWS V14.01,2013-05-13 06:26:00,
2013-05-13 02:31:00,36.8,31.2,30.07,SSE,163,0.0,0.0,80,0.00,,---,0.00,VWS V14.01,2013-05-13 06:31:00,
2013-05-13 02:36:00,36.6,31.0,30.06,SSE,163,0.0,0.0,80,0.00,,---,0.00,VWS V14.01,2013-05-13 06:36:00,
2013-05-13 02:41:00,36.2,30.6,30.06,SSE,163,0.0,0.0,80,0.00,,---,0.00,VWS V14.01,2013-05-13 06:41:00,
2013-05-13 02:46:00,36.0,30.8,30.07,SSE,163,0.0,0.0,81,0.00,,---,0.00,VWS V14.01,2013-05-13 06:46:00,
2013-05-13 02:51:00,35.7,30.5,30.07,SSE,163,0.0,0.0,81,0.00,,---,0.00,VWS V14.01,2013-05-13 06:51:00,
2013-05-13 02:56:00,35.4,30.2,30.07,SSE,163,0.0,0.0,81,0.00,,---,0.00,VWS V14.01,2013-05-13 06:56:00,
2013-05-13 03:01:00,35.2,30.0,30.07,SSE,163,0.0,0.0,81,0.00,,---,0.00,VWS V14.01,2013-05-13 07:01:00,
2013-05-13 03:06:00,34.9,30.0,30.07,SSE,163,0.0,0.0,82,0.00,,---,0.00,VWS V14.01,2013-05-13 07:06:00,
2013-05-13 03:11:00,34.7,29.8,30.06,SSE,163,0.0,0.0,82,0.00,,---,0.00,VWS V14.01,2013-05-13 07:11:00,
2013-05-13 03:16:00,34.5,29.6,30.06,SSE,163,0.0,0.0,82,0.00,,---,0.00,VWS V14.01,2013-05-13 07:16:00,
2013-05-13 03:21:00,34.2,29.3,30.06,SSE,163,0.0,0.0,82,0.00,,---,0.00,VWS V14.01,2013-05-13 07:21:00,
2013-05-13 03:26:00,34.0,29.1,30.06,SSE,163,0.0,0.0,82,0.00,,---,0.00,VWS V14.01,2013-05-13 07:26:00,
2013-05-13 03:31:00,33.8,29.2,30.06,SSE,163,0.0,0.0,83,0.00,,---,0.00,VWS V14.01,2013-05-13 07:31:00,
2013-05-13 03:36:00,33.6,29.0,30.06,SSE,163,0.0,0.0,83,0.00,,---,0.00,VWS V14.01,2013-05-13 07:36:00,
2013-05-13 03:41:00,33.4,28.8,30.06,SSE,163,0.0,0.0,83,0.00,,---,0.00,VWS V14.01,2013-05-13 07:41:00,
2013-05-13 03:46:00,33.2,28.6,30.06,SSE,163,0.0,0.0,83,0.00,,---,0.00,VWS V14.01,2013-05-13 07:46:00,
2013-05-13 03:51:00,33.0,28.4,30.07,SSE,163,0.0,0.0,83,0.00,,---,0.00,VWS V14.01,2013-05-13 07:51:00,
2013-05-13 03:56:00,32.9,28.3,30.07,SSE,163,0.0,0.0,83,0.00,,---,0.00,VWS V14.01,2013-05-13 07:56:00,
2013-05-13 04:01:00,32.6,28.0,30.07,SSE,163,0.0,0.0,83,0.00,,---,0.00,VWS V14.01,2013-05-13 08:01:00,
2013-05-13 04:06:00,32.5,28.2,30.07,SSE,163,0.0,0.0,84,0.00,,---,0.00,VWS V14.01,2013-05-13 08:06:00,
2013-05-13 04:11:00,32.3,28.0,30.07,SSE,163,0.0,0.0,84,0.00,,---,0.00,VWS V14.01,2013-05-13 08:11:00,
2013-05-13 04:16:00,32.1,27.8,30.07,SSE,163,0.0,0.0,84,0.00,,---,0.00,VWS V14.01,2013-05-13 08:16:00,
2013-05-13 04:21:00,32.0,27.7,30.07,SSE,163,0.0,0.0,84,0.00,,---,0.00,VWS V14.01,2013-05-13 08:21:00,
2013-05-13 04:26:00,31.9,27.6,30.07,SSE,163,0.0,0.0,84,0.00,,---,0.00,VWS V14.01,2013-05-13 08:26:00,
2013-05-13 04:31:00,31.7,27.4,30.07,SSE,163,0.0,0.0,84,0.00,,---,0.00,VWS V14.01,2013-05-13 08:31:00,
2013-05-13 04:36:00,31.6,27.6,30.07,SSE,163,0.0,0.0,85,0.00,,---,0.00,VWS V14.01,2013-05-13 08:36:00,
2013-05-13 04:41:00,31.5,27.5,30.07,SSE,163,0.0,0.0,85,0.00,,---,0.00,VWS V14.01,2013-05-13 08:41:00,
2013-05-13 04:46:00,31.4,27.4,30.07,SSE,163,0.0,0.0,85,0.00,,---,0.00,VWS V14.01,2013-05-13 08:46:00,
2013-05-13 04:51:00,31.2,27.2,30.07,SSE,163,0.0,0.0,85,0.00,,---,0.00,VWS V14.01,2013-05-13 08:51:00,
2013-05-13 04:56:00,31.1,27.1,30.07,SSE,163,0.0,0.0,85,0.00,,---,0.00,VWS V14.01,2013-05-13 08:56:00,
2013-05-13 05:01:00,31.0,27.0,30.07,SSE,163,0.0,0.0,85,0.00,,---,0.00,VWS V14.01,2013-05-13 09:01:00,
2013-05-13 05:06:00,30.8,27.1,30.07,SSE,163,0.0,0.0,86,0.00,,---,0.00,VWS V14.01,2013-05-13 09:06:00,
2013-05-13 05:11:00,30.8,27.1,30.08,SSE,163,0.0,0.0,86,0.00,,---,0.00,VWS V14.01,2013-05-13 09:11:00,
2013-05-13 05:16:00,30.7,27.0,30.08,SSE,163,0.0,0.0,86,0.00,,---,0.00,VWS V14.01,2013-05-13 09:16:00,
2013-05-13 05:21:00,30.6,26.9,30.08,SSE,163,0.0,0.0,86,0.00,,---,0.00,VWS V14.01,2013-05-13 09:21:00,
2013-05-13 05:26:00,30.5,26.8,30.08,SSE,163,0.0,0.0,86,0.00,,---,0.00,VWS V14.01,2013-05-13 09:26:00,
2013-05-13 05:31:00,30.4,26.7,30.07,SSE,163,0.0,0.0,86,0.00,,---,0.00,VWS V14.01,2013-05-13 09:31:00,
2013-05-13 05:36:00,30.3,26.6,30.08,SSE,163,0.0,0.0,86,0.00,,---,0.00,VWS V14.01,2013-05-13 09:36:00,
2013-05-13 05:41:00,30.3,26.6,30.08,SSE,163,0.0,0.0,86,0.00,,---,0.00,VWS V14.01,2013-05-13 09:41:00,
2013-05-13 05:46:00,30.2,26.8,30.08,SSE,163,0.0,0.0,87,0.00,,---,0.00,VWS V14.01,2013-05-13 09:46:00,
2013-05-13 05:51:00,30.1,26.7,30.08,SSE,163,0.0,0.0,87,0.00,,---,0.00,VWS V14.01,2013-05-13 09:51:00,
2013-05-13 05:56:00,30.1,26.7,30.08,SSE,163,0.0,0.0,87,0.00,,---,0.00,VWS V14.01,2013-05-13 09:56:00,
2013-05-13 06:01:00,30.0,26.6,30.08,SSE,163,0.0,0.0,87,0.00,,---,0.00,VWS V14.01,2013-05-13 10:01:00,
2013-05-13 06:06:00,29.9,26.5,30.09,SSE,163,0.0,0.0,87,0.00,,---,0.00,VWS V14.01,2013-05-13 10:06:00,
2013-05-13 06:11:00,29.8,26.4,30.09,SSE,163,0.0,0.0,87,0.00,,---,0.00,VWS V14.01,2013-05-13 10:11:00,
2013-05-13 06:16:00,29.8,26.4,30.09,SSE,163,0.0,0.0,87,0.00,,---,0.00,VWS V14.01,2013-05-13 10:16:00,
2013-05-13 06:21:00,29.7,26.3,30.09,SSE,163,0.0,0.0,87,0.00,,---,0.00,VWS V14.01,2013-05-13 10:21:00,
2013-05-13 06:26:00,29.7,26.3,30.09,SSE,163,0.0,0.0,87,0.00,,---,0.00,VWS V14.01,2013-05-13 10:26:00,
2013-05-13 06:31:00,29.6,26.2,30.09,SSE,163,0.0,0.0,87,0.00,,---,0.00,VWS V14.01,2013-05-13 10:31:00,
2013-05-13 06:36:00,29.6,26.5,30.09,SSE,163,0.0,0.0,88,0.00,,---,0.00,VWS V14.01,2013-05-13 10:36:00,
2013-05-13 06:41:00,29.5,26.4,30.09,SSE,163,0.0,0.0,88,0.00,,---,0.00,VWS V14.01,2013-05-13 10:41:00,
2013-05-13 06:46:00,29.5,26.4,30.10,SSE,163,0.0,0.0,88,0.00,,---,0.00,VWS V14.01,2013-05-13 10:46:00,
2013-05-13 06:51:00,29.4,26.3,30.09,SSE,163,0.0,0.0,88,0.00,,---,0.00,VWS V14.01,2013-05-13 10:51:00,
2013-05-13 06:56:00,29.4,26.3,30.10,SSE,163,0.0,0.0,88,0.00,,---,0.00,VWS V14.01,2013-05-13 10:56:00,
2013-05-13 07:01:00,29.4,26.6,30.10,SSE,163,0.0,0.0,89,0.00,,---,0.00,VWS V14.01,2013-05-13 11:01:00,
2013-05-13 07:06:00,29.4,26.6,30.10,SSE,163,0.0,0.0,89,0.00,,---,0.00,VWS V14.01,2013-05-13 11:06:00,
2013-05-13 07:11:00,29.5,26.7,30.10,SSE,163,0.0,0.0,89,0.00,,---,0.00,VWS V14.01,2013-05-13 11:11:00,
2013-05-13 07:16:00,29.6,26.8,30.10,SSE,163,0.0,0.0,89,0.00,,---,0.00,VWS V14.01,2013-05-13 11:16:00,
2013-05-13 07:21:00,29.7,27.1,30.10,SSE,163,0.0,0.0,90,0.00,,---,0.00,VWS V14.01,2013-05-13 11:21:00,
2013-05-13 07:26:00,29.9,27.3,30.11,SSE,163,0.0,0.0,90,0.00,,---,0.00,VWS V14.01,2013-05-13 11:26:00,
2013-05-13 07:31:00,30.1,27.8,30.11,SSE,163,0.0,0.0,91,0.00,,---,0.00,VWS V14.01,2013-05-13 11:31:00,
2013-05-13 07:36:00,30.5,28.2,30.11,SSE,163,0.0,0.0,91,0.00,,---,0.00,VWS V14.01,2013-05-13 11:36:00,
2013-05-13 07:41:00,30.8,28.8,30.11,SSE,163,0.0,1.0,92,0.00,,---,0.00,VWS V14.01,2013-05-13 11:41:00,
2013-05-13 07:46:00,31.3,29.2,30.11,SSE,167,0.0,1.0,92,0.00,,---,0.00,VWS V14.01,2013-05-13 11:46:00,
2013-05-13 07:51:00,31.9,29.8,30.11,SSE,166,0.0,1.0,92,0.00,,---,0.00,VWS V14.01,2013-05-13 11:51:00,
2013-05-13 07:56:00,32.4,30.6,30.12,WSW,250,0.0,2.0,93,0.00,,---,0.00,VWS V14.01,2013-05-13 11:56:00,
2013-05-13 08:01:00,33.0,31.2,30.12,WSW,250,0.0,0.0,93,0.00,,---,0.00,VWS V14.01,2013-05-13 12:01:00,
2013-05-13 08:06:00,33.5,31.7,30.12,SW,222,0.0,1.0,93,0.00,,---,0.00,VWS V14.01,2013-05-13 12:06:00,
2013-05-13 08:11:00,34.1,32.3,30.12,SSW,212,0.0,1.0,93,0.00,,---,0.00,VWS V14.01,2013-05-13 12:11:00,
2013-05-13 08:16:00,34.6,32.8,30.12,SSE,159,0.0,3.0,93,0.00,,---,0.00,VWS V14.01,2013-05-13 12:16:00,
2013-05-13 08:21:00,35.3,33.5,30.13,SSE,166,0.0,4.0,93,0.00,,---,0.00,VWS V14.01,2013-05-13 12:21:00,
2013-05-13 08:26:00,35.9,34.1,30.13,East,99,0.0,2.0,93,0.00,,---,0.00,VWS V14.01,2013-05-13 12:26:00,
2013-05-13 08:31:00,36.5,34.7,30.13,NW,306,1.0,5.0,93,0.00,,---,0.00,VWS V14.01,2013-05-13 12:31:00,
2013-05-13 08:36:00,37.0,35.2,30.13,West,273,0.0,1.0,93,0.00,,---,0.00,VWS V14.01,2013-05-13 12:36:00,
2013-05-13 08:41:00,37.6,35.5,30.13,NW,324,0.0,2.0,92,0.00,,---,0.00,VWS V14.01,2013-05-13 12:41:00,
2013-05-13 08:46:00,38.1,36.0,30.13,NE,53,2.0,2.0,92,0.00,,---,0.00,VWS V14.01,2013-05-13 12:46:00,
2013-05-13 08:51:00,39.0,36.6,30.14,SSW,202,1.0,2.0,91,0.00,,---,0.00,VWS V14.01,2013-05-13 12:51:00,
2013-05-13 08:56:00,39.8,36.8,30.14,South,180,2.0,3.0,89,0.00,,---,0.00,VWS V14.01,2013-05-13 12:56:00,
2013-05-13 09:01:00,40.8,36.7,30.14,SW,235,1.0,4.0,85,0.00,,---,0.00,VWS V14.01,2013-05-13 13:01:00,
2013-05-13 09:06:00,41.5,36.7,30.14,West,269,2.0,4.0,83,0.00,,---,0.00,VWS V14.01,2013-05-13 13:06:00,
2013-05-13 09:11:00,42.2,35.8,30.14,SW,223,3.0,4.0,78,0.00,,---,0.00,VWS V14.01,2013-05-13 13:11:00,
2013-05-13 09:16:00,42.8,35.1,30.14,WSW,240,0.0,3.0,74,0.00,,---,0.00,VWS V14.01,2013-05-13 13:16:00,
2013-05-13 09:21:00,43.4,35.0,30.14,WNW,285,0.0,3.0,72,0.00,,---,0.00,VWS V14.01,2013-05-13 13:21:00,
2013-05-13 09:26:00,43.9,34.4,30.14,South,171,3.0,3.0,69,0.00,,---,0.00,VWS V14.01,2013-05-13 13:26:00,
2013-05-13 09:31:00,44.4,33.8,30.14,West,279,0.0,7.0,66,0.00,,---,0.00,VWS V14.01,2013-05-13 13:31:00,
2013-05-13 09:36:00,44.8,33.8,30.14,SW,229,0.0,2.0,65,0.00,,---,0.00,VWS V14.01,2013-05-13 13:36:00,
2013-05-13 09:41:00,45.1,33.7,30.14,WSW,241,1.0,4.0,64,0.00,,---,0.00,VWS V14.01,2013-05-13 13:41:00,
2013-05-13 09:46:00,45.7,34.2,30.14,SE,128,0.0,2.0,64,0.00,,---,0.00,VWS V14.01,2013-05-13 13:46:00,
2013-05-13 09:51:00,46.1,34.6,30.15,WNW,297,6.0,6.0,64,0.00,,---,0.00,VWS V14.01,2013-05-13 13:51:00,
2013-05-13 09:56:00,46.5,33.8,30.14,WSW,258,4.0,7.0,61,0.00,,---,0.00,VWS V14.01,2013-05-13 13:56:00,
2013-05-13 10:01:00,47.1,33.9,30.14,ESE,120,0.0,4.0,60,0.00,,---,0.00,VWS V14.01,2013-05-13 14:01:00,
2013-05-13 10:06:00,47.6,34.4,30.14,WSW,252,0.0,3.0,60,0.00,,---,0.00,VWS V14.01,2013-05-13 14:06:00,
2013-05-13 10:11:00,47.7,32.8,30.15,ENE,75,0.0,4.0,56,0.00,,---,0.00,VWS V14.01,2013-05-13 14:11:00,
2013-05-13 10:16:00,47.9,33.8,30.15,North,355,0.0,3.0,58,0.00,,---,0.00,VWS V14.01,2013-05-13 14:16:00,
2013-05-13 10:21:00,48.4,34.3,30.15,SW,234,1.0,1.0,58,0.00,,---,0.00,VWS V14.01,2013-05-13 14:21:00,
2013-05-13 10:26:00,48.7,33.7,30.15,WSW,240,0.0,4.0,56,0.00,,---,0.00,VWS V14.01,2013-05-13 14:26:00,
2013-05-13 10:31:00,48.6,33.6,30.15,NNW,333,2.0,6.0,56,0.00,,---,0.00,VWS V14.01,2013-05-13 14:31:00,
2013-05-13 10:36:00,48.7,33.7,30.15,NW,319,1.0,5.0,56,0.00,,---,0.00,VWS V14.01,2013-05-13 14:36:00,
2013-05-13 10:41:00,49.1,34.1,30.15,West,269,0.0,3.0,56,0.00,,---,0.00,VWS V14.01,2013-05-13 14:41:00,
2013-05-13 10:46:00,49.2,32.3,30.15,South,188,0.0,2.0,52,0.00,,---,0.00,VWS V14.01,2013-05-13 14:46:00,
2013-05-13 10:51:00,49.5,34.5,30.15,ENE,71,2.0,4.0,56,0.00,,---,0.00,VWS V14.01,2013-05-13 14:51:00,
2013-05-13 10:56:00,49.6,33.7,30.15,WSW,240,0.0,7.0,54,0.00,,---,0.00,VWS V14.01,2013-05-13 14:56:00,
2013-05-13 11:01:00,49.6,34.6,30.15,NNW,329,5.0,5.0,56,0.00,,---,0.00,VWS V14.01,2013-05-13 15:01:00,
2013-05-13 11:06:00,49.8,33.4,30.15,WSW,244,8.0,8.0,53,0.00,,---,0.00,VWS V14.01,2013-05-13 15:06:00,
2013-05-13 11:11:00,49.9,33.9,30.15,SE,130,2.0,7.0,54,0.00,,---,0.00,VWS V14.01,2013-05-13 15:11:00,
2013-05-13 11:16:00,50.3,34.3,30.15,East,97,0.0,7.0,54,0.00,,---,0.00,VWS V14.01,2013-05-13 15:16:00,
2013-05-13 11:21:00,50.8,34.3,30.15,WNW,286,1.0,4.0,53,0.00,,---,0.00,VWS V14.01,2013-05-13 15:21:00,
2013-05-13 11:26:00,50.9,34.4,30.15,South,169,2.0,4.0,53,0.00,,---,0.00,VWS V14.01,2013-05-13 15:26:00,
2013-05-13 11:31:00,51.0,35.0,30.15,WNW,286,2.0,6.0,54,0.00,,---,0.00,VWS V14.01,2013-05-13 15:31:00,
2013-05-13 11:36:00,51.5,34.0,30.15,SW,232,1.0,8.0,51,0.00,,---,0.00,VWS V14.01,2013-05-13 15:36:00,
2013-05-13 11:41:00,51.5,33.5,30.15,West,269,9.0,11.0,50,0.00,,---,0.00,VWS V14.01,2013-05-13 15:41:00,
2013-05-13 11:46:00,51.8,35.7,30.15,WNW,299,1.0,12.0,54,0.00,,---,0.00,VWS V14.01,2013-05-13 15:46:00,
2013-05-13 11:51:00,52.2,33.6,30.15,West,269,2.0,8.0,49,0.00,,---,0.00,VWS V14.01,2013-05-13 15:51:00,
2013-05-13 11:56:00,52.2,33.1,30.15,SSE,150,2.0,5.0,48,0.00,,---,0.00,VWS V14.01,2013-05-13 15:56:00,
2013-05-13 12:01:00,52.1,33.0,30.15,South,175,1.0,7.0,48,0.00,,---,0.00,VWS V14.01,2013-05-13 16:01:00,
2013-05-13 12:06:00,52.4,35.8,30.15,ESE,109,5.0,9.0,53,0.00,,---,0.00,VWS V14.01,2013-05-13 16:06:00,
2013-05-13 12:11:00,52.6,34.0,30.15,WSW,254,0.0,9.0,49,0.00,,---,0.00,VWS V14.01,2013-05-13 16:11:00,
2013-05-13 12:16:00,53.1,36.4,30.15,WNW,297,9.0,9.0,53,0.00,,---,0.00,VWS V14.01,2013-05-13 16:16:00,
2013-05-13 12:21:00,53.6,37.4,30.15,NNW,342,6.0,6.0,54,0.00,,---,0.00,VWS V14.01,2013-05-13 16:21:00,
2013-05-13 12:26:00,53.6,32.8,30.15,SSW,200,3.0,11.0,45,0.00,,---,0.00,VWS V14.01,2013-05-13 16:26:00,
2013-05-13 12:31:00,53.7,34.5,30.14,SSE,167,3.0,5.0,48,0.00,,---,0.00,VWS V14.01,2013-05-13 16:31:00,
2013-05-13 12:36:00,54.1,34.3,30.14,West,267,0.0,6.0,47,0.00,,---,0.00,VWS V14.01,2013-05-13 16:36:00,
2013-05-13 12:41:00,54.0,33.7,30.14,West,260,0.0,8.0,46,0.00,,---,0.00,VWS V14.01,2013-05-13 16:41:00,
2013-05-13 12:46:00,54.0,33.7,30.15,NW,312,12.0,12.0,46,0.00,,---,0.00,VWS V14.01,2013-05-13 16:46:00,
2013-05-13 12:51:00,54.4,36.2,30.14,SW,226,6.0,10.0,50,0.00,,---,0.00,VWS V14.01,2013-05-13 16:51:00,
2013-05-13 12:56:00,54.8,36.5,30.14,SSE,148,3.0,10.0,50,0.00,,---,0.00,VWS V14.01,2013-05-13 16:56:00,
2013-05-13 13:01:00,55.1,36.3,30.14,WNW,286,4.0,12.0,49,0.00,,---,0.00,VWS V14.01,2013-05-13 17:01:00,
2013-05-13 13:06:00,54.8,35.5,30.14,West,277,7.0,12.0,48,0.00,,---,0.00,VWS V14.01,2013-05-13 17:06:00,
2013-05-13 13:11:00,54.3,33.4,30.14,West,260,3.0,6.0,45,0.00,,---,0.00,VWS V14.01,2013-05-13 17:11:00,
2013-05-13 13:16:00,53.7,32.9,30.14,WNW,284,1.0,7.0,45,0.00,,---,0.00,VWS V14.01,2013-05-13 17:16:00,
2013-05-13 13:21:00,53.8,34.1,30.14,NNW,344,2.0,9.0,47,0.00,,---,0.00,VWS V14.01,2013-05-13 17:21:00,
2013-05-13 13:26:00,54.1,33.2,30.14,WSW,245,0.0,9.0,45,0.00,,---,0.00,VWS V14.01,2013-05-13 17:26:00,
2013-05-13 13:31:00,54.2,34.4,30.13,WNW,282,9.0,11.0,47,0.00,,---,0.00,VWS V14.01,2013-05-13 17:31:00,
2013-05-13 13:36:00,53.9,33.6,30.13,SE,128,0.0,2.0,46,0.00,,---,0.00,VWS V14.01,2013-05-13 17:36:00,
2013-05-13 13:41:00,53.5,32.1,30.13,WNW,300,4.0,15.0,44,0.00,,---,0.00,VWS V14.01,2013-05-13 17:41:00,
2013-05-13 13:46:00,53.8,35.1,30.13,West,280,3.0,7.0,49,0.00,,---,0.00,VWS V14.01,2013-05-13 17:46:00,
2013-05-13 13:51:00,54.6,33.7,30.13,NW,313,1.0,4.0,45,0.00,,---,0.00,VWS V14.01,2013-05-13 17:51:00,
2013-05-13 13:56:00,55.0,35.2,30.13,West,275,7.0,12.0,47,0.00,,---,0.00,VWS V14.01,2013-05-13 17:56:00,
2013-05-13 14:01:00,55.4,33.3,30.13,ENE,75,0.0,3.0,43,0.00,,---,0.00,VWS V14.01,2013-05-13 18:01:00,
2013-05-13 14:06:00,55.3,32.6,30.13,SW,218,2.0,10.0,42,0.00,,---,0.00,VWS V14.01,2013-05-13 18:06:00,
2013-05-13 14:11:00,54.5,32.5,30.13,West,266,3.0,4.0,43,0.00,,---,0.00,VWS V14.01,2013-05-13 18:11:00,
2013-05-13 14:16:00,54.2,32.8,30.13,WNW,285,5.0,13.0,44,0.00,,---,0.00,VWS V14.01,2013-05-13 18:16:00,
2013-05-13 14:21:00,54.1,33.8,30.13,WNW,287,0.0,3.0,46,0.00,,---,0.00,VWS V14.01,2013-05-13 18:21:00,
2013-05-13 14:26:00,53.6,32.2,30.13,ESE,102,0.0,12.0,44,0.00,,---,0.00,VWS V14.01,2013-05-13 18:26:00,
2013-05-13 14:31:00,53.0,32.2,30.13,West,274,0.0,4.0,45,0.00,,---,0.00,VWS V14.01,2013-05-13 18:31:00,
2013-05-13 14:36:00,52.6,31.9,30.13,WSW,248,1.0,12.0,45,0.00,,---,0.00,VWS V14.01,2013-05-13 18:36:00,
2013-05-13 14:41:00,52.4,32.2,30.13,WNW,299,4.0,6.0,46,0.00,,---,0.00,VWS V14.01,2013-05-13 18:41:00,
2013-05-13 14:46:00,52.5,32.9,30.13,WNW,293,3.0,9.0,47,0.00,,---,0.00,VWS V14.01,2013-05-13 18:46:00,
2013-05-13 14:51:00,52.7,33.0,30.13,SSW,208,6.0,12.0,47,0.00,,---,0.00,VWS V14.01,2013-05-13 18:51:00,
2013-05-13 14:56:00,52.7,32.5,30.14,WNW,303,10.0,11.0,46,0.00,,---,0.00,VWS V14.01,2013-05-13 18:56:00,
2013-05-13 15:01:00,52.5,31.8,30.14,WNW,285,0.0,15.0,45,0.00,,---,0.00,VWS V14.01,2013-05-13 19:01:00,
2013-05-13 15:06:00,52.7,35.1,30.13,WSW,251,12.0,12.0,51,0.00,,---,0.00,VWS V14.01,2013-05-13 19:06:00,
2013-05-13 15:11:00,53.8,34.6,30.13,West,271,2.0,5.0,48,0.00,,---,0.00,VWS V14.01,2013-05-13 19:11:00,
2013-05-13 15:16:00,54.1,33.2,30.13,NNE,15,4.0,10.0,45,0.00,,---,0.00,VWS V14.01,2013-05-13 19:16:00,
2013-05-13 15:21:00,53.7,32.9,30.14,West,269,4.0,9.0,45,0.00,,---,0.00,VWS V14.01,2013-05-13 19:21:00,
2013-05-13 15:26:00,53.2,33.0,30.14,West,279,0.0,5.0,46,0.00,,---,0.00,VWS V14.01,2013-05-13 19:26:00,
2013-05-13 15:31:00,52.8,32.6,30.13,NW,313,0.0,3.0,46,0.00,,---,0.00,VWS V14.01,2013-05-13 19:31:00,
2013-05-13 15:36:00,53.2,34.0,30.13,North,355,2.0,7.0,48,0.00,,---,0.00,VWS V14.01,2013-05-13 19:36:00,
2013-05-13 15:41:00,54.2,35.0,30.13,West,277,5.0,10.0,48,0.00,,---,0.00,VWS V14.01,2013-05-13 19:41:00,
2013-05-13 15:46:00,54.8,33.9,30.13,SSE,160,0.0,4.0,45,0.00,,---,0.00,VWS V14.01,2013-05-13 19:46:00,
2013-05-13 15:51:00,54.5,33.0,30.13,WNW,303,2.0,4.0,44,0.00,,---,0.00,VWS V14.01,2013-05-13 19:51:00,
2013-05-13 15:56:00,54.1,32.7,30.13,WNW,294,3.0,11.0,44,0.00,,---,0.00,VWS V14.01,2013-05-13 19:56:00,
2013-05-13 16:01:00,53.9,33.1,30.13,NW,313,3.0,9.0,45,0.00,,---,0.00,VWS V14.01,2013-05-13 20:01:00,
2013-05-13 16:06:00,54.1,33.8,30.13,WNW,299,1.0,6.0,46,0.00,,---,0.00,VWS V14.01,2013-05-13 20:06:00,
2013-05-13 16:11:00,55.0,35.2,30.13,SSW,195,2.0,10.0,47,0.00,,---,0.00,VWS V14.01,2013-05-13 20:11:00,
2013-05-13 16:16:00,56.1,34.5,30.13,West,273,0.0,1.0,44,0.00,,---,0.00,VWS V14.01,2013-05-13 20:16:00,
2013-05-13 16:21:00,56.6,34.4,30.13,NW,315,0.0,2.0,43,0.00,,---,0.00,VWS V14.01,2013-05-13 20:21:00,
2013-05-13 16:26:00,56.6,36.6,30.12,South,184,0.0,2.0,47,0.00,,---,0.00,VWS V14.01,2013-05-13 20:26:00,
2013-05-13 16:31:00,57.3,35.0,30.12,SSW,198,5.0,5.0,43,0.00,,---,0.00,VWS V14.01,2013-05-13 20:31:00,
2013-05-13 16:36:00,57.1,33.6,30.12,WSW,238,0.0,5.0,41,0.00,,---,0.00,VWS V14.01,2013-05-13 20:36:00,
2013-05-13 16:41:00,57.2,34.9,30.12,WNW,282,0.0,11.0,43,0.00,,---,0.00,VWS V14.01,2013-05-13 20:41:00,
2013-05-13 16:46:00,57.5,34.0,30.12,NNE,19,3.0,4.0,41,0.00,,---,0.00,VWS V14.01,2013-05-13 20:46:00,
2013-05-13 16:51:00,57.3,33.2,30.12,ESE,115,3.0,3.0,40,0.00,,---,0.00,VWS V14.01,2013-05-13 20:51:00,
2013-05-13 16:56:00,57.2,31.8,30.12,South,173,0.0,3.0,38,0.00,,---,0.00,VWS V14.01,2013-05-13 20:56:00,
2013-05-13 17:01:00,56.8,31.5,30.11,SE,127,4.0,8.0,38,0.00,,---,0.00,VWS V14.01,2013-05-13 21:01:00,
2013-05-13 17:06:00,56.3,32.9,30.11,SSW,209,3.0,3.0,41,0.00,,---,0.00,VWS V14.01,2013-05-13 21:06:00,
2013-05-13 17:11:00,55.5,32.8,30.11,WNW,284,0.0,10.0,42,0.00,,---,0.00,VWS V14.01,2013-05-13 21:11:00,
2013-05-13 17:15:00,55.1,32.4,30.11,NW,307,2.0,6.0,42,0.00,,---,0.00,VWS V14.01,2013-05-13 21:15:00,
2013-05-13 17:20:00,54.7,30.9,30.11,SW,221,2.0,6.0,40,0.00,,---,0.00,VWS V14.01,2013-05-13 21:20:00,
2013-05-13 17:25:00,54.1,31.5,30.11,NW,312,3.0,10.0,42,0.00,,---,0.00,VWS V14.01,2013-05-13 21:25:00,
2013-05-13 17:30:00,53.6,31.7,30.11,WSW,246,0.0,4.0,43,0.00,,---,0.00,VWS V14.01,2013-05-13 21:30:00,
2013-05-13 17:35:00,53.6,31.7,30.11,NW,323,0.0,5.0,43,0.00,,---,0.00,VWS V14.01,2013-05-13 21:35:00,
2013-05-13 17:40:00,53.3,31.4,30.11,NW,325,0.0,5.0,43,0.00,,---,0.00,VWS V14.01,2013-05-13 21:40:00,
2013-05-13 17:45:00,53.0,31.7,30.11,WNW,282,8.0,8.0,44,0.00,,---,0.00,VWS V14.01,2013-05-13 21:45:00,
2013-05-13 17:50:00,52.8,31.5,30.11,SW,219,2.0,9.0,44,0.00,,---,0.00,VWS V14.01,2013-05-13 21:50:00,
2013-05-13 17:55:00,52.4,31.7,30.11,NW,305,3.0,10.0,45,0.00,,---,0.00,VWS V14.01,2013-05-13 21:55:00,
2013-05-13 18:00:00,52.2,32.1,30.11,West,275,0.0,0.0,46,0.00,,---,0.00,VWS V14.01,2013-05-13 22:00:00,
2013-05-13 18:05:00,52.5,32.3,30.12,NNE,19,0.0,5.0,46,0.00,,---,0.00,VWS V14.01,2013-05-13 22:05:00,
2013-05-13 18:10:00,52.6,31.3,30.11,WSW,255,0.0,6.0,44,0.00,,---,0.00,VWS V14.01,2013-05-13 22:10:00,
2013-05-13 18:15:00,52.6,31.9,30.12,West,269,0.0,3.0,45,0.00,,---,0.00,VWS V14.01,2013-05-13 22:15:00,
2013-05-13 18:20:00,52.5,31.8,30.12,WSW,238,10.0,10.0,45,0.00,,---,0.00,VWS V14.01,2013-05-13 22:20:00,
2013-05-13 18:25:00,52.6,31.3,30.11,West,274,0.0,5.0,44,0.00,,---,0.00,VWS V14.01,2013-05-13 22:25:00,
2013-05-13 18:30:00,52.8,32.1,30.11,West,260,0.0,10.0,45,0.00,,---,0.00,VWS V14.01,2013-05-13 22:30:00,
2013-05-13 18:35:00,52.9,32.7,30.12,NNW,333,6.0,6.0,46,0.00,,---,0.00,VWS V14.01,2013-05-13 22:35:00,
2013-05-13 18:40:00,52.8,32.1,30.12,SW,223,2.0,3.0,45,0.00,,---,0.00,VWS V14.01,2013-05-13 22:40:00,
2013-05-13 18:45:00,52.6,30.8,30.12,West,263,4.0,4.0,43,0.00,,---,0.00,VWS V14.01,2013-05-13 22:45:00,
2013-05-13 18:50:00,52.2,31.0,30.12,West,273,2.0,4.0,44,0.00,,---,0.00,VWS V14.01,2013-05-13 22:50:00,
2013-05-13 18:55:00,51.9,32.3,30.12,WNW,288,0.0,1.0,47,0.00,,---,0.00,VWS V14.01,2013-05-13 22:55:00,
2013-05-13 19:00:00,51.5,30.9,30.12,WNW,282,4.0,4.0,45,0.00,,---,0.00,VWS V14.01,2013-05-13 23:00:00,
2013-05-13 19:05:00,51.3,32.3,30.12,ENE,69,4.0,4.0,48,0.00,,---,0.00,VWS V14.01,2013-05-13 23:05:00,
2013-05-13 19:10:00,51.0,30.4,30.12,WNW,290,1.0,3.0,45,0.00,,---,0.00,VWS V14.01,2013-05-13 23:10:00,
2013-05-13 19:15:00,50.8,30.2,30.12,WNW,286,2.0,4.0,45,0.00,,---,0.00,VWS V14.01,2013-05-13 23:15:00,
2013-05-13 19:20:00,50.5,29.4,30.12,WSW,245,1.0,5.0,44,0.00,,---,0.00,VWS V14.01,2013-05-13 23:20:00,
2013-05-13 19:25:00,50.2,28.6,30.12,SSW,194,2.0,2.0,43,0.00,,---,0.00,VWS V14.01,2013-05-13 23:25:00,
2013-05-13 19:30:00,49.9,28.9,30.12,West,263,4.0,7.0,44,0.00,,---,0.00,VWS V14.01,2013-05-13 23:30:00,
2013-05-13 19:35:00,49.6,28.6,30.12,WSW,252,0.0,1.0,44,0.00,,---,0.00,VWS V14.01,2013-05-13 23:35:00,
2013-05-13 19:40:00,49.4,29.5,30.12,West,275,0.0,1.0,46,0.00,,---,0.00,VWS V14.01,2013-05-13 23:40:00,
2013-05-13 19:45:00,49.1,29.2,30.12,WNW,286,5.0,5.0,46,0.00,,---,0.00,VWS V14.01,2013-05-13 23:45:00,
2013-05-13 19:50:00,48.8,27.3,30.12,NW,322,0.0,9.0,43,0.00,,---,0.00,VWS V14.01,2013-05-13 23:50:00,
2013-05-13 19:55:00,48.6,28.8,30.13,WSW,242,0.0,1.0,46,0.00,,---,0.00,VWS V14.01,2013-05-13 23:55:00,
2013-05-13 20:00:00,48.3,28.0,30.13,West,263,0.0,0.0,45,0.00,,---,0.00,VWS V14.01,2013-05-14 00:00:00,
2013-05-13 20:05:00,48.1,27.2,30.13,SSW,213,0.0,3.0,44,0.00,,---,0.00,VWS V14.01,2013-05-14 00:05:00,
2013-05-13 20:10:00,47.8,27.5,30.13,NNW,327,0.0,4.0,45,0.00,,---,0.00,VWS V14.01,2013-05-14 00:10:00,
2013-05-13 20:15:00,47.6,27.3,30.13,SSW,211,2.0,5.0,45,0.00,,---,0.00,VWS V14.01,2013-05-14 00:15:00,
2013-05-13 20:20:00,47.3,27.0,30.14,SW,226,0.0,1.0,45,0.00,,---,0.00,VWS V14.01,2013-05-14 00:20:00,
2013-05-13 20:25:00,47.1,27.9,30.14,SW,226,0.0,1.0,47,0.00,,---,0.00,VWS V14.01,2013-05-14 00:25:00,
2013-05-13 20:30:00,46.9,27.7,30.14,SW,226,0.0,0.0,47,0.00,,---,0.00,VWS V14.01,2013-05-14 00:30:00,
2013-05-13 20:35:00,46.7,28.6,30.15,SW,226,0.0,0.0,49,0.00,,---,0.00,VWS V14.01,2013-05-14 00:35:00,
2013-05-13 20:40:00,46.4,28.8,30.14,SW,226,0.0,0.0,50,0.00,,---,0.00,VWS V14.01,2013-05-14 00:40:00,
2013-05-13 20:45:00,46.0,28.4,30.15,SW,226,0.0,0.0,50,0.00,,---,0.00,VWS V14.01,2013-05-14 00:45:00,
2013-05-13 20:50:00,45.6,29.0,30.15,SW,226,0.0,0.0,52,0.00,,---,0.00,VWS V14.01,2013-05-14 00:50:00,
2013-05-13 20:55:00,45.1,29.0,30.15,SW,226,0.0,0.0,53,0.00,,---,0.00,VWS V14.01,2013-05-14 00:55:00,
2013-05-13 21:00:00,44.6,29.9,30.16,SW,226,0.0,0.0,56,0.00,,---,0.00,VWS V14.01,2013-05-14 01:00:00,
2013-05-13 21:05:00,44.0,30.6,30.16,SW,226,0.0,0.0,59,0.00,,---,0.00,VWS V14.01,2013-05-14 01:05:00,
2013-05-13 21:10:00,43.4,30.0,30.17,SW,226,0.0,0.0,59,0.00,,---,0.00,VWS V14.01,2013-05-14 01:10:00,
2013-05-13 21:15:00,42.9,30.0,30.17,SW,226,0.0,0.0,60,0.00,,---,0.00,VWS V14.01,2013-05-14 01:15:00,
2013-05-13 21:20:00,42.2,29.7,30.17,SW,226,0.0,0.0,61,0.00,,---,0.00,VWS V14.01,2013-05-14 01:20:00,
2013-05-13 21:25:00,41.7,29.7,30.17,SW,226,0.0,0.0,62,0.00,,---,0.00,VWS V14.01,2013-05-14 01:25:00,
2013-05-13 21:30:00,41.1,29.5,30.18,SW,226,0.0,0.0,63,0.00,,---,0.00,VWS V14.01,2013-05-14 01:30:00,
2013-05-13 21:35:00,40.7,29.5,30.18,SW,226,0.0,0.0,64,0.00,,---,0.00,VWS V14.01,2013-05-14 01:35:00,
2013-05-13 21:40:00,40.2,29.4,30.18,SW,226,0.0,0.0,65,0.00,,---,0.00,VWS V14.01,2013-05-14 01:40:00,
2013-05-13 21:45:00,39.7,29.3,30.18,SW,226,0.0,0.0,66,0.00,,---,0.00,VWS V14.01,2013-05-14 01:45:00,
2013-05-13 21:50:00,39.3,29.3,30.18,SW,226,0.0,0.0,67,0.00,,---,0.00,VWS V14.01,2013-05-14 01:50:00,
2013-05-13 21:55:00,38.9,29.2,30.19,SW,226,0.0,0.0,68,0.00,,---,0.00,VWS V14.01,2013-05-14 01:55:00,
2013-05-13 22:00:00,38.5,29.2,30.18,SW,226,0.0,0.0,69,0.00,,---,0.00,VWS V14.01,2013-05-14 02:00:00,
2013-05-13 22:05:00,38.1,29.2,30.19,SW,226,0.0,0.0,70,0.00,,---,0.00,VWS V14.01,2013-05-14 02:05:00,
2013-05-13 22:10:00,37.8,29.3,30.19,SW,226,0.0,0.0,71,0.00,,---,0.00,VWS V14.01,2013-05-14 02:10:00,
2013-05-13 22:15:00,37.4,28.9,30.19,SW,226,0.0,0.0,71,0.00,,---,0.00,VWS V14.01,2013-05-14 02:15:00,
2013-05-13 22:20:00,37.1,28.6,30.19,SW,226,0.0,0.0,71,0.00,,---,0.00,VWS V14.01,2013-05-14 02:20:00,
2013-05-13 22:25:00,36.8,28.6,30.19,SW,226,0.0,0.0,72,0.00,,---,0.00,VWS V14.01,2013-05-14 02:25:00,
2013-05-13 22:30:00,36.4,28.6,30.19,SW,226,0.0,0.0,73,0.00,,---,0.00,VWS V14.01,2013-05-14 02:30:00,
2013-05-13 22:35:00,36.1,28.3,30.19,SW,226,0.0,0.0,73,0.00,,---,0.00,VWS V14.01,2013-05-14 02:35:00,
2013-05-13 22:40:00,35.8,28.3,30.19,SW,226,0.0,0.0,74,0.00,,---,0.00,VWS V14.01,2013-05-14 02:40:00,
2013-05-13 22:45:00,35.5,28.0,30.19,SW,226,0.0,0.0,74,0.00,,---,0.00,VWS V14.01,2013-05-14 02:45:00,
2013-05-13 22:50:00,35.3,28.2,30.19,SW,226,0.0,0.0,75,0.00,,---,0.00,VWS V14.01,2013-05-14 02:50:00,
2013-05-13 22:55:00,35.0,28.2,30.19,SW,226,0.0,0.0,76,0.00,,---,0.00,VWS V14.01,2013-05-14 02:55:00,
2013-05-13 23:00:00,34.7,27.9,30.19,SW,226,0.0,0.0,76,0.00,,---,0.00,VWS V14.01,2013-05-14 03:00:00,
2013-05-13 23:05:00,34.5,28.0,30.19,SW,226,0.0,0.0,77,0.00,,---,0.00,VWS V14.01,2013-05-14 03:05:00,
2013-05-13 23:10:00,34.2,27.8,30.19,SW,226,0.0,0.0,77,0.00,,---,0.00,VWS V14.01,2013-05-14 03:10:00,
2013-05-13 23:15:00,34.0,27.9,30.19,SW,226,0.0,0.0,78,0.00,,---,0.00,VWS V14.01,2013-05-14 03:15:00,
2013-05-13 23:20:00,33.8,27.7,30.19,SW,226,0.0,0.0,78,0.00,,---,0.00,VWS V14.01,2013-05-14 03:20:00,
2013-05-13 23:25:00,33.5,27.7,30.19,SW,226,0.0,0.0,79,0.00,,---,0.00,VWS V14.01,2013-05-14 03:25:00,
2013-05-13 23:30:00,33.3,27.5,30.19,SW,226,0.0,0.0,79,0.00,,---,0.00,VWS V14.01,2013-05-14 03:30:00,
2013-05-13 23:35:00,33.1,27.3,30.19,SW,226,0.0,0.0,79,0.00,,---,0.00,VWS V14.01,2013-05-14 03:35:00,
2013-05-13 23:40:00,32.9,27.4,30.19,SW,226,0.0,0.0,80,0.00,,---,0.00,VWS V14.01,2013-05-14 03:40:00,
2013-05-13 23:45:00,32.7,27.2,30.19,SW,226,0.0,0.0,80,0.00,,---,0.00,VWS V14.01,2013-05-14 03:45:00,
2013-05-13 23:50:00,32.5,27.3,30.19,SW,226,0.0,0.0,81,0.00,,---,0.00,VWS V14.01,2013-05-14 03:50:00,
2013-05-13 23:55:00,32.4,27.2,30.19,SW,226,0.0,0.0,81,0.00,,---,0.00,VWS V14.01,2013-05-14 03:55:00,